Theta_e
310 307 308 308 307 308 308 309 310 309 309 310 309 308 305 302 303 302 301 301 301 302 302 303 305 306 306 308 309 310 313 318 321 322 323 323 323 322 319 317 318 319 319 320
308 307 307 307 306 308 309 310 309 309 309 309 309 308 303 302 301 301 300 300 300 301 302 303 304 305 306 306 306 307 307 307 308 309 309 311 312 314 316 314 315 315 315 316
309 311 308 309 308 309 309 309 310 312 309 307 306 307 305 301 301 300 300 300 300 300 301 302 303 303 304 304 304 304 304 304 305 305 306 307 308 312 313 313 312 311 311 312
308 309 310 309 310 309 312 309 310 312 309 312 306 311 307 303 301 300 299 299 300 299 300 300 301 302 302 302 302 303 304 304 303 304 304 304 304 304 304 304 305 305 305 305
314 310 310 311 312 310 313 307 308 308 307 308 308 309 306 303 303 300 299 299 299 299 300 300 300 300 300 301 303 303 303 303 302 302 302 302 302 301 301 301 301 300 300 300
311 308 309 310 307 309 305 307 306 303 304 309 308 308 308 305 305 300 299 299 299 298 299 299 299 299 299 300 301 300 301 300 299 299 299 299 298 297 297 296 296 295 294 294
310 309 308 308 308 307 308 310 313 310 309 312 306 306 307 306 303 301 300 300 299 298 299 299 298 298 298 298 298 297 297 298 297 296 296 295 295 294 294 293 292 292 291 291
313 315 309 307 310 309 308 310 312 309 309 309 307 312 312 302 300 302 302 301 299 299 298 298 298 298 298 297 296 296 296 296 295 294 294 293 292 292 292 291 290 290 290 289
313 315 306 307 307 308 308 310 307 308 300 307 308 307 304 301 300 299 300 300 299 298 299 299 299 299 298 296 295 294 294 294 293 293 292 291 291 290 290 290 289 289 289 289
312 312 309 307 308 307 309 307 312 307 307 305 306 307 306 304 301 299 298 299 299 299 299 298 299 299 298 295 294 293 293 292 292 291 291 290 290 290 289 289 289 288 288 288
308 311 310 309 309 309 310 310 308 308 304 303 301 304 303 305 301 300 299 301 300 300 300 299 300 299 297 295 293 292 291 291 290 290 290 289 289 289 288 288 288 287 286 286
309 309 309 310 306 305 308 309 309 310 309 305 306 309 302 303 301 301 301 302 302 301 300 300 300 299 298 296 293 291 290 290 289 290 289 289 289 289 288 288 287 286 286 285
309 309 304 307 307 306 308 306 308 305 302 304 306 307 301 302 301 303 303 303 303 302 300 300 299 299 297 296 293 290 289 289 289 289 289 289 288 288 288 288 287 286 285 285
310 307 307 312 309 307 308 307 305 306 304 306 309 308 306 303 302 301 302 303 302 302 301 301 299 298 297 295 291 290 290 289 289 289 289 289 288 288 288 288 287 285 284 284
309 312 305 304 303 303 303 306 306 305 309 309 309 307 303 303 301 303 303 302 301 299 299 299 299 298 296 294 291 290 290 290 289 289 289 289 288 288 288 288 287 285 284 283
301 305 300 299 300 299 303 303 303 305 303 303 303 303 301 302 303 302 302 299 298 298 297 297 298 297 295 293 292 291 290 290 289 289 289 288 288 288 288 288 286 284 283 283
302 299 300 304 294 298 305 299 303 302 301 302 304 304 292 294 296 298 297 297 297 296 295 296 296 297 295 293 292 291 291 290 289 289 289 288 288 288 288 288 285 283 283 283
298 297 299 295 294 305 300 291 294 300 299 297 292 291 292 293 295 295 295 294 294 294 294 294 295 295 293 291 291 290 290 290 289 289 288 288 288 288 288 287 284 283 282 282
297 298 294 300 297 297 298 291 291 292 293 292 293 292 292 293 291 292 293 293 292 293 293 293 292 291 291 290 290 290 290 289 289 288 288 288 288 288 287 285 283 282 282 282
296 297 305 291 300 300 294 290 291 292 292 289 292 290 290 290 287 287 292 291 292 292 292 291 290 290 290 290 290 290 290 289 289 288 288 288 288 287 285 283 282 282 281 281
295 296 302 295 300 296 291 290 291 291 292 289 291 292 290 288 291 292 291 291 292 292 292 291 290 291 290 290 289 289 289 289 288 288 287 287 286 285 283 283 281 281 280 280
293 296 296 296 296 297 289 289 292 292 292 294 293 293 292 292 292 291 291 291 292 292 291 291 291 290 290 290 289 289 289 288 288 287 286 285 284 284 285 281 280 280 279 279
291 291 291 294 294 290 290 293 294 294 294 293 293 293 292 292 291 291 291 291 291 291 291 291 290 290 290 290 289 289 289 288 287 285 284 284 285 282 280 280 279 279 278 278
288 287 289 290 289 289 291 293 293 293 293 293 293 293 291 291 291 291 291 291 291 290 290 290 290 290 290 290 289 289 288 286 285 284 284 284 284 282 280 279 278 278 277 277
290 288 287 288 290 290 291 292 293 292 292 291 291 292 291 291 291 291 291 290 290 290 290 290 290 290 289 289 289 288 286 285 284 284 283 283 282 281 279 278 277 277 276 276
289 289 289 289 291 292 293 294 292 291 291 291 291 291 291 291 291 291 291 291 290 290 290 290 290 289 289 288 287 286 285 284 283 282 282 281 280 277 277 277 277 275 275 275
Wind_Speed
3 3 8 12 9 3 5 4 5 3 3 2 6 6 4 8 13 12 11 14 16 18 17 18 18 18 17 16 16 17 18 19 14 11 11 9 6 5 3 5 8 8 10 10
3 7 9 4 6 5 3 3 5 5 2 4 4 6 4 7 5 8 12 14 16 18 20 23 26 27 29 30 31 31 29 25 21 17 15 12 10 7 5 6 5 7 9 9
7 5 6 6 4 6 4 6 5 6 2 0 5 5 4 3 9 9 10 13 15 17 19 21 24 27 29 31 31 31 31 29 27 25 22 17 13 10 6 3 3 5 6 7
6 5 6 5 5 7 4 7 5 4 3 3 2 5 4 4 4 5 11 13 14 14 18 20 22 24 25 27 26 26 25 23 22 19 17 15 15 13 13 9 8 6 5 5
6 6 6 5 5 7 5 4 6 3 3 3 2 1 6 4 3 5 9 13 14 15 18 19 19 20 21 20 19 18 19 18 18 17 15 14 14 15 13 11 9 10 10 9
4 1 5 6 3 4 8 5 6 5 3 0 5 6 4 4 3 5 12 15 15 16 17 17 17 16 15 14 13 13 14 16 15 14 12 11 12 12 10 10 9 10 11 11
2 4 2 4 6 2 3 5 1 3 2 5 1 2 8 5 3 8 18 23 19 17 17 16 14 12 11 9 9 10 11 13 12 11 10 10 11 10 11 11 11 11 11 13
7 4 9 6 4 7 5 6 5 7 3 3 2 5 5 2 4 10 26 27 22 20 17 13 11 9 7 6 6 7 7 9 9 8 8 9 9 11 12 12 13 14 15 16
6 4 2 2 3 4 4 3 2 6 2 1 4 5 2 2 1 10 23 27 26 22 19 15 11 7 4 3 3 3 4 5 5 5 6 7 9 9 10 11 12 14 14 16
7 2 1 2 4 6 4 6 4 3 1 5 4 4 5 5 7 6 11 24 25 23 20 16 11 7 4 3 2 1 1 1 2 3 4 5 7 9 10 12 14 16 17 18
6 4 1 4 5 9 3 3 4 4 4 5 2 5 5 6 10 13 19 29 27 24 22 19 14 10 7 6 5 5 4 3 1 1 3 6 8 11 12 14 16 17 19 19
7 5 4 7 3 2 2 6 7 5 5 2 1 7 2 3 14 23 25 29 24 23 21 19 17 14 11 10 10 10 9 6 4 4 6 7 10 12 14 16 18 20 21 22
9 2 2 6 2 2 4 5 3 4 4 8 5 6 3 6 10 20 22 24 23 21 20 21 22 21 16 14 14 14 11 8 7 8 9 10 12 15 17 19 21 23 23 25
7 5 7 9 6 5 5 6 6 6 5 5 13 13 3 4 7 12 20 19 17 16 17 22 26 24 20 18 17 16 14 12 12 13 14 15 17 19 21 23 24 25 26 29
3 4 3 4 3 3 3 6 12 10 14 11 12 13 7 9 9 19 21 13 15 16 19 22 25 26 24 20 19 18 16 15 15 17 18 19 20 20 22 25 27 27 29 32
2 3 3 1 3 4 3 6 6 13 2 3 3 13 7 7 12 12 19 17 19 19 16 17 22 24 23 21 19 19 18 17 19 21 23 22 20 22 26 27 29 29 33 35
6 7 4 4 2 3 9 8 14 6 6 8 11 13 4 5 13 20 20 18 17 15 15 17 19 22 23 20 18 19 19 21 24 25 26 24 22 25 28 31 31 32 35 36
7 5 2 3 2 6 2 2 3 12 7 8 0 5 8 6 7 9 11 11 11 13 15 17 18 19 18 16 17 16 21 25 28 29 26 25 25 28 31 32 31 34 35 36
1 6 3 5 4 7 6 6 8 8 9 10 10 7 7 5 4 8 8 9 11 12 14 14 13 14 15 15 17 22 25 27 28 28 27 27 28 30 32 32 32 34 35 36
3 4 7 4 5 9 2 3 9 6 6 11 17 7 10 10 2 5 8 10 12 16 16 18 16 14 15 18 22 26 27 29 30 30 30 30 29 30 31 31 33 34 35 36
3 1 9 5 5 7 5 7 10 6 6 8 16 15 17 6 10 9 12 14 15 16 18 19 17 18 22 20 22 24 26 29 31 32 31 30 30 30 30 32 34 34 34 35
7 8 4 3 3 10 14 6 9 5 6 12 18 20 22 17 11 11 14 18 16 15 19 22 22 24 25 25 25 27 29 30 32 31 30 28 29 30 33 33 33 33 32 34
3 6 6 9 6 1 31 6 21 8 7 15 18 20 24 19 14 13 17 19 19 18 20 24 28 29 29 29 29 29 32 33 32 30 28 28 31 29 29 32 32 31 29 31
5 6 3 3 4 6 23 19 10 12 16 17 19 21 21 20 16 21 21 21 24 22 22 23 26 29 30 30 29 31 33 32 30 30 30 31 32 30 29 30 29 29 28 29
4 9 6 2 1 4 13 20 22 20 18 18 19 22 21 21 26 20 23 24 23 26 22 23 26 29 28 26 30 32 31 29 30 31 31 31 30 29 30 29 27 27 26 27
8 6 5 4 12 10 10 17 16 16 16 15 18 21 23 23 26 24 25 22 22 21 22 25 26 25 25 28 29 29 28 29 30 31 31 29 28 28 28 29 28 22 24 25
Wind_Direction
149 127 209 197 200 162 136 173 213 261 200 218 242 260 1 54 83 89 91 89 85 79 77 78 79 77 78 80 78 78 81 79 82 84 83 83 75 72 34 343 330 310 306 298
57 229 230 159 163 178 157 171 246 278 283 184 306 280 67 48 65 108 117 109 105 101 96 92 89 88 83 79 77 74 73 73 73 71 67 65 58 60 48 33 356 336 333 328
178 213 142 167 165 158 202 185 193 215 336 335 332 290 189 68 112 116 123 124 119 109 101 96 92 88 86 80 75 71 68 66 65 66 67 66 64 65 68 68 13 359 336 313
234 250 176 176 198 148 214 206 162 169 128 228 30 283 288 185 154 147 146 143 128 115 104 99 94 90 83 78 73 66 61 64 67 69 70 70 68 67 70 62 51 41 22 4
234 180 186 189 199 159 216 117 143 127 116 67 293 245 258 116 221 215 185 158 144 137 124 112 99 91 85 81 71 59 54 61 64 57 56 57 62 69 73 69 61 52 45 42
231 217 180 201 101 160 144 81 46 45 92 291 226 178 269 186 213 168 185 178 163 153 137 122 115 108 99 88 76 70 64 61 56 51 60 60 68 74 68 61 46 38 31 26
158 210 194 162 93 57 113 106 326 340 357 231 107 164 243 166 176 192 182 182 175 166 152 137 129 123 105 91 79 65 56 54 50 45 51 55 52 46 36 27 21 16 11 10
169 200 171 185 192 169 179 165 162 216 205 260 315 232 271 306 301 219 190 177 176 175 169 158 146 138 121 103 86 61 53 50 46 41 41 48 44 29 17 12 8 5 3 2
160 254 68 74 127 129 187 185 155 103 55 30 233 274 260 82 47 149 167 176 183 181 184 179 172 164 147 113 91 69 48 40 53 51 48 37 26 18 10 5 360 357 354 351
204 99 49 130 90 41 139 157 84 4 202 261 271 272 239 221 203 173 177 194 194 189 191 195 194 197 202 205 222 227 356 30 61 48 28 11 1 356 354 349 344 345 342 339
153 112 243 123 202 172 137 175 68 123 144 183 278 248 208 212 177 187 203 203 201 200 202 204 208 220 220 229 235 232 217 219 199 325 332 341 342 344 341 337 336 336 336 332
192 133 162 195 132 98 169 183 157 162 216 254 195 257 24 252 177 186 204 208 208 211 213 218 226 230 231 231 232 225 217 211 225 276 303 317 322 323 325 325 328 329 327 327
179 186 79 354 43 29 205 194 160 103 80 193 167 263 7 88 163 203 210 209 210 214 218 225 232 236 235 236 229 219 217 227 251 272 286 298 308 314 318 320 320 321 320 321
142 143 165 205 184 138 181 201 188 160 183 178 232 257 177 199 198 202 212 209 211 217 230 239 240 240 238 234 226 220 225 236 252 268 279 292 301 306 309 313 315 316 317 319
132 185 104 47 71 94 208 197 187 191 220 210 247 232 184 206 206 209 201 209 213 244 250 255 248 244 235 229 223 223 230 244 261 275 280 284 291 300 307 310 312 312 314 315
21 160 120 34 358 40 270 236 188 220 180 223 229 260 173 201 224 215 221 241 258 263 255 255 250 240 232 230 230 231 238 251 264 268 270 271 279 297 303 306 308 308 312 314
153 137 122 230 61 43 281 190 199 180 197 175 214 238 143 197 214 229 243 240 247 249 251 247 247 241 233 232 236 242 252 262 269 269 267 268 276 288 295 302 303 307 311 312
135 109 67 138 54 228 227 95 109 212 241 215 308 224 203 173 198 218 223 235 246 255 249 244 237 230 231 236 245 251 261 268 272 270 265 268 275 282 290 296 298 304 307 311
133 129 129 161 198 314 252 184 164 169 244 197 210 227 172 175 196 238 230 261 270 262 255 238 231 231 232 241 259 265 267 269 272 264 261 263 270 279 288 290 296 304 309 313
43 43 181 140 184 220 337 158 144 121 278 218 202 193 161 152 156 249 311 284 268 259 243 236 219 228 250 271 266 264 269 270 266 259 258 263 271 280 285 291 299 306 310 312
93 48 199 185 220 276 205 177 150 121 241 179 199 206 172 181 209 287 281 268 265 257 248 230 239 262 279 271 265 265 268 268 262 257 260 267 277 283 288 295 299 305 309 313
157 163 193 121 194 259 168 125 167 189 166 177 182 187 198 212 238 261 275 268 259 249 243 244 254 274 275 267 267 266 265 265 260 260 266 274 280 287 293 292 299 303 309 312
222 185 180 190 203 69 172 180 200 193 189 201 220 226 214 220 240 287 290 279 253 256 254 255 265 273 274 264 263 265 265 262 263 266 271 277 284 289 289 294 298 302 309 311
239 162 181 117 193 200 198 207 195 217 242 259 262 260 235 234 273 294 287 275 254 264 267 269 272 273 271 264 262 265 262 262 267 271 276 282 288 286 287 292 298 303 308 309
197 133 147 274 261 172 233 225 235 247 261 268 270 262 259 259 287 283 289 272 270 269 268 274 277 277 269 261 261 260 261 267 271 274 279 284 285 285 288 294 300 303 307 309
179 150 166 204 200 190 224 258 248 233 246 259 266 269 267 280 285 282 287 277 281 264 272 278 278 267 260 260 257 260 265 269 272 277 284 285 286 288 292 295 298 300 306 307